Wind_Speed
16 15 14 12 11 11 12 14 15 16 17 18 19 21 23 23 22 21 20 20 19 19 19 19 19 19 20 21 22 23 24 25 26 27 28 29 31 32 33 34 35 37 38 40
16 13 13 13 14 14 15 15 14 15 17 20 21 22 23 22 23 23 22 21 20 20 20 20 20 20 21 22 23 24 26 27 28 29 30 31 33 34 35 36 38 39 40 41
16 14 14 14 14 15 16 16 16 17 18 20 22 22 21 20 21 22 21 21 21 21 20 21 21 22 22 23 25 26 28 29 30 31 32 33 35 35 36 38 39 41 41 42
16 15 14 11 13 15 15 15 16 16 18 22 22 21 21 21 20 20 20 21 22 22 22 22 23 24 24 25 26 27 29 30 31 33 34 36 37 38 39 40 42 42 42 42
17 15 14 15 20 19 18 16 15 16 18 19 20 20 21 21 21 21 22 22 23 23 23 23 24 25 26 26 27 29 30 32 33 35 36 38 39 40 41 43 44 43 43 43
17 17 16 21 24 21 18 19 18 17 19 21 20 19 23 24 25 25 24 24 24 25 25 25 26 26 27 28 29 31 33 34 35 37 38 40 41 42 43 44 45 44 44 43
17 16 18 24 24 23 21 19 17 19 22 23 23 22 25 26 27 27 26 26 27 27 27 27 28 28 28 30 31 33 35 36 37 40 41 42 43 44 45 46 46 46 45 44
21 20 23 26 26 26 23 21 20 23 25 28 28 27 28 29 28 28 28 28 28 29 30 29 30 30 31 32 34 35 37 38 40 42 44 44 44 45 47 47 47 46 45 44
26 27 27 28 29 26 23 24 27 29 29 29 29 30 30 30 30 29 29 30 30 31 32 32 32 33 34 35 37 38 40 41 43 44 46 46 46 47 47 48 47 47 46 44
27 29 30 29 29 28 28 29 29 30 31 31 31 31 31 32 32 31 32 33 33 34 34 35 35 36 37 38 40 41 43 44 45 46 48 48 49 49 49 50 49 47 46 45
29 30 32 32 31 31 31 31 31 32 32 32 32 32 32 33 34 34 34 35 36 36 37 37 38 39 40 41 42 44 45 46 47 49 50 50 49 50 50 49 49 47 46 45
32 32 34 34 33 32 33 33 33 33 33 33 33 34 34 35 35 36 37 37 38 39 39 41 42 43 43 44 46 47 48 49 51 52 52 51 51 51 51 50 48 46 45 43
32 32 34 35 34 35 35 35 35 34 34 35 35 35 36 37 37 38 39 40 40 41 42 44 45 46 47 48 48 49 50 51 52 52 53 54 54 53 51 49 48 46 44 42
32 33 34 34 35 35 36 37 37 36 36 36 37 37 38 39 39 40 41 42 43 44 45 46 47 48 49 49 50 51 52 53 54 54 54 54 53 52 50 49 47 45 43 42
32 33 35 35 36 36 37 38 38 38 39 39 39 40 40 41 41 42 43 44 45 46 47 48 49 50 51 51 51 52 53 53 54 54 54 54 53 51 50 48 46 44 42 40
33 34 36 36 37 37 38 39 40 41 41 42 42 43 43 43 44 45 45 46 47 48 49 50 51 52 52 52 53 53 54 54 54 54 54 54 52 50 49 46 44 42 40 38
35 36 36 37 38 39 40 41 42 43 44 44 45 45 45 46 46 47 47 48 49 50 52 52 52 52 53 54 55 55 55 55 55 55 54 53 51 49 47 44 42 39 37 35
36 37 38 39 40 41 42 43 44 44 45 46 47 47 47 48 49 49 50 50 51 53 54 54 54 54 55 56 56 56 55 55 55 54 53 51 49 46 43 41 38 36 35 33
38 39 39 40 42 43 44 44 45 46 47 47 48 49 50 50 51 52 52 53 54 55 55 55 55 56 56 57 56 55 55 54 53 52 50 48 45 42 40 37 35 33 32 31
38 39 40 41 43 43 44 45 46 47 48 49 50 51 52 53 53 54 54 55 56 56 56 56 56 57 57 56 55 55 54 52 51 49 47 44 42 39 36 34 32 31 30 28
39 40 41 42 44 45 46 47 48 49 50 51 52 53 54 54 54 55 55 56 57 57 57 57 57 57 57 56 54 53 52 50 48 45 43 40 38 36 34 32 31 29 28 26
41 42 43 44 46 47 48 49 49 51 51 52 53 54 54 55 55 56 56 57 57 57 56 56 56 55 55 54 52 51 49 47 45 42 40 36 35 33 31 30 29 27 26 24
44 45 46 46 47 48 49 50 51 52 52 53 54 54 55 55 55 55 55 55 55 54 53 53 53 52 51 50 49 47 45 42 40 38 36 34 32 30 29 27 26 25 24 23
47 48 49 49 50 50 51 52 52 53 53 53 54 54 54 53 52 52 52 51 50 49 49 48 48 47 47 46 44 41 39 37 36 34 32 30 28 26 26 24 23 22 21 20
49 49 50 50 51 51 51 52 52 52 51 51 50 49 49 48 48 47 47 46 46 45 45 45 44 43 42 41 38 37 35 33 31 29 27 25 23 22 21 20 20 19 19 18
48 48 49 49 49 49 49 48 48 47 47 46 45 44 43 43 43 43 43 43 42 41 41 41 41 39 37 36 35 33 31 28 25 23 22 21 20 19 18 18 18 17 17 17
46 46 46 46 46 45 45 44 44 43 43 42 41 40 39 39 39 39 39 39 39 39 38 37 36 35 35 34 31 28 25 23 19 18 19 19 18 18 17 17 16 16 15 15
Wind_Direction
274 281 292 303 298 285 276 272 273 279 281 276 274 280 288 293 296 297 296 297 299 300 300 301 303 305 307 310 313 313 314 315 316 318 320 321 322 322 322 322 323 323 323 323
273 266 271 271 270 271 272 272 271 272 273 272 271 277 284 291 294 295 295 296 298 299 300 301 302 303 306 308 311 312 313 314 315 317 319 321 321 321 321 321 322 323 323 323
281 268 257 256 262 260 259 262 259 258 262 270 276 281 286 288 289 292 294 296 299 300 301 301 302 303 304 306 309 311 312 312 313 315 317 319 320 321 322 322 322 323 324 323
283 274 259 256 260 263 261 261 268 269 270 275 280 286 288 289 291 294 297 299 300 301 301 301 301 303 305 306 308 311 311 312 313 314 316 317 318 320 322 322 323 323 323 323
277 272 267 258 251 242 242 248 258 262 265 271 280 288 291 294 297 298 299 299 299 299 300 300 300 301 303 305 307 308 310 311 312 313 314 315 317 318 320 321 322 322 322 324
276 269 264 267 267 256 251 251 254 264 270 272 276 284 290 295 297 298 299 299 299 299 298 298 299 300 301 303 306 307 309 311 312 313 313 314 316 317 318 320 322 321 321 323
274 268 264 264 265 266 259 250 258 271 274 278 282 285 290 292 294 296 297 297 297 296 296 297 298 299 301 303 304 305 308 310 311 312 314 314 315 317 318 319 320 321 321 321
275 267 258 261 264 265 263 261 267 276 279 281 283 286 286 288 290 291 292 293 293 294 294 296 297 299 300 302 303 304 306 308 310 312 313 314 315 316 317 318 319 320 319 319
267 269 266 268 268 266 271 272 279 281 282 283 283 283 285 287 288 289 290 292 292 292 293 294 295 297 299 301 303 304 306 307 310 312 313 314 314 315 316 317 318 318 318 318
263 271 272 274 276 280 282 279 280 281 281 281 282 283 284 285 287 288 289 291 291 291 292 293 294 296 298 299 302 304 305 307 308 310 312 312 313 314 314 316 316 316 316 316
263 266 270 273 277 279 280 279 278 278 279 280 281 282 284 285 287 287 288 289 289 291 292 293 294 295 297 299 301 302 304 306 308 309 311 311 312 313 313 315 316 315 315 315
264 270 273 276 277 279 280 279 279 279 280 281 282 283 284 285 286 287 288 289 289 290 292 293 294 295 297 298 300 302 303 304 306 307 309 309 310 311 312 313 313 313 313 313
265 270 272 276 278 280 280 281 281 281 282 283 283 284 285 286 286 287 287 288 289 290 291 292 293 294 296 298 299 300 301 303 304 305 306 307 308 310 310 310 310 311 311 311
266 268 271 274 277 279 280 281 282 283 283 284 284 285 286 286 287 287 288 289 290 290 291 292 293 294 295 297 298 299 300 301 302 303 304 305 307 308 308 308 308 308 308 308
267 269 272 275 277 278 279 281 283 284 285 285 286 286 287 287 288 288 289 290 290 290 291 292 293 294 296 297 297 298 299 300 300 301 303 304 305 305 305 305 305 305 305 305
269 271 273 275 277 279 280 282 283 284 286 287 288 289 289 289 289 290 290 291 291 292 292 292 294 295 296 297 297 297 298 299 299 300 301 302 302 302 302 302 301 302 303 303
273 274 275 277 278 280 281 283 284 285 287 288 289 290 290 291 291 291 292 292 293 293 293 293 295 296 296 295 296 296 297 298 298 298 299 299 299 299 298 298 299 299 298 298
277 277 278 279 280 281 282 284 285 287 288 289 290 290 291 291 292 292 292 293 293 293 293 295 295 295 294 295 295 296 297 297 297 297 297 297 297 296 296 296 296 295 294 295
278 279 280 281 282 283 285 286 287 288 289 289 290 291 292 292 292 293 293 293 294 294 295 295 295 295 295 295 295 295 295 295 294 294 295 294 294 293 293 293 293 292 291 291
279 280 281 282 283 285 286 287 288 289 289 290 291 291 292 293 293 293 294 294 294 295 296 296 295 295 295 295 295 294 294 293 292 292 292 292 291 290 289 289 289 288 288 287
281 282 283 284 285 286 287 288 289 289 290 291 292 292 293 294 294 295 295 295 295 296 296 296 296 296 295 295 295 294 293 292 291 289 289 288 287 287 285 285 284 283 283 283
283 284 285 286 286 287 289 289 290 291 292 293 293 294 294 295 295 296 296 296 297 297 297 297 297 296 296 295 294 293 292 290 288 287 285 283 283 282 281 280 278 278 279 279
284 285 286 286 287 289 290 291 291 292 293 294 294 295 295 296 296 297 297 297 298 298 298 298 298 297 297 296 295 294 292 289 286 284 281 279 277 276 275 273 271 272 273 275
286 286 287 288 289 290 291 292 293 293 294 295 295 296 296 297 297 298 298 299 299 299 299 299 299 299 299 298 296 294 292 288 284 280 278 277 275 272 271 268 266 266 267 270
286 287 289 290 291 292 292 293 294 295 295 296 296 297 297 298 299 300 300 300 300 300 300 300 301 301 301 300 298 295 292 289 284 278 274 271 268 267 265 258 257 259 262 265
287 288 289 291 292 292 293 294 294 295 296 296 297 297 298 299 300 301 301 302 302 302 302 303 304 304 303 303 300 296 292 289 283 274 266 261 257 256 254 251 251 252 257 261
289 290 291 292 293 293 294 295 296 296 297 297 298 298 299 299 301 302 302 303 304 304 304 305 306 306 306 305 302 298 294 288 277 268 262 255 250 246 246 247 246 248 255 260
Height
5852 5852 5850 5850 5852 5853 5854 5853 5853 5852 5850 5849 5847 5847 5846 5845 5844 5843 5841 5840 5838 5837 5836 5834 5833 5831 5829 5827 5825 5822 5820 5817 5814 5810 5807 5802 5798 5793 5788 5783 5778 5772 5766 5760
5848 5849 5849 5849 5851 5851 5851 5850 5850 5849 5847 5845 5843 5843 5843 5842 5840 5838 5837 5836 5834 5833 5831 5830 5828 5826 5824 5822 5820 5817 5815 5811 5808 5804 5800 5796 5791 5787 5781 5776 5770 5764 5758 5751
5843 5844 5844 5845 5846 5846 5845 5845 5844 5844 5843 5840 5840 5839 5838 5837 5836 5834 5833 5831 5830 5828 5827 5825 5823 5821 5819 5817 5815 5812 5809 5805 5802 5798 5794 5789 5784 5779 5774 5768 5762 5756 5749 5743
5838 5839 5839 5842 5841 5840 5839 5838 5838 5838 5837 5836 5835 5834 5833 5832 5831 5829 5828 5826 5825 5823 5822 5820 5818 5816 5814 5811 5809 5806 5802 5799 5795 5791 5786 5782 5777 5771 5766 5760 5754 5748 5741 5734
5834 5833 5834 5835 5833 5832 5833 5833 5832 5831 5831 5831 5830 5829 5827 5825 5825 5824 5823 5821 5820 5818 5816 5814 5812 5810 5807 5805 5802 5799 5795 5792 5788 5784 5779 5774 5769 5763 5758 5752 5745 5739 5732 5725
5828 5829 5829 5828 5825 5824 5826 5825 5824 5825 5826 5825 5824 5824 5822 5820 5819 5818 5817 5815 5813 5812 5810 5808 5806 5803 5801 5798 5795 5791 5788 5784 5780 5775 5771 5765 5760 5754 5749 5743 5736 5730 5723 5716
5822 5822 5824 5821 5819 5818 5820 5818 5818 5819 5820 5818 5818 5817 5816 5814 5813 5812 5811 5809 5807 5805 5803 5801 5798 5796 5793 5790 5787 5783 5779 5775 5771 5767 5762 5757 5751 5745 5740 5733 5727 5720 5714 5707
5815 5816 5817 5814 5813 5812 5811 5811 5812 5813 5813 5812 5811 5810 5809 5808 5807 5805 5803 5802 5800 5798 5796 5793 5791 5788 5785 5782 5778 5775 5771 5767 5762 5757 5752 5747 5741 5736 5730 5723 5717 5711 5704 5698
5809 5810 5809 5807 5806 5804 5804 5806 5807 5807 5807 5805 5804 5804 5802 5801 5799 5798 5795 5794 5792 5790 5787 5785 5782 5780 5777 5773 5769 5766 5762 5757 5752 5747 5742 5737 5731 5725 5720 5713 5707 5701 5695 5688
5803 5802 5800 5800 5799 5799 5799 5799 5800 5799 5799 5798 5797 5796 5794 5793 5791 5790 5788 5786 5783 5781 5778 5776 5773 5770 5767 5764 5760 5756 5752 5747 5742 5737 5732 5727 5721 5715 5709 5703 5697 5690 5684 5678
5796 5795 5794 5794 5793 5793 5793 5793 5793 5792 5791 5790 5789 5787 5786 5784 5783 5781 5779 5777 5774 5771 5769 5766 5763 5760 5757 5754 5750 5746 5741 5736 5731 5726 5721 5716 5710 5704 5699 5693 5686 5680 5675 5669
5790 5789 5788 5786 5786 5786 5785 5784 5784 5783 5782 5781 5780 5778 5777 5775 5773 5771 5769 5767 5764 5761 5759 5755 5752 5749 5746 5742 5739 5734 5730 5725 5720 5715 5710 5704 5699 5694 5688 5682 5676 5670 5664 5659
5782 5781 5780 5779 5778 5777 5776 5775 5774 5773 5773 5771 5770 5769 5767 5765 5763 5761 5758 5756 5754 5751 5748 5744 5741 5738 5734 5731 5727 5723 5718 5713 5708 5703 5697 5692 5687 5681 5676 5671 5665 5660 5655 5650
5774 5773 5771 5770 5770 5769 5767 5766 5764 5764 5763 5761 5760 5758 5757 5755 5753 5750 5748 5745 5742 5739 5736 5733 5729 5725 5722 5718 5714 5710 5705 5700 5695 5690 5685 5680 5675 5669 5664 5659 5654 5649 5644 5640
5764 5764 5763 5762 5761 5760 5759 5757 5755 5754 5752 5751 5749 5748 5746 5744 5741 5739 5736 5733 5730 5727 5723 5720 5716 5712 5709 5705 5700 5696 5691 5686 5682 5677 5671 5667 5662 5656 5651 5647 5642 5638 5633 5629
5754 5754 5753 5753 5752 5750 5749 5748 5746 5744 5742 5740 5738 5736 5734 5731 5729 5726 5723 5720 5717 5714 5710 5706 5702 5698 5695 5690 5686 5682 5677 5673 5668 5662 5658 5653 5648 5643 5639 5634 5630 5626 5623 5619
5746 5745 5744 5743 5742 5741 5739 5737 5735 5733 5731 5729 5726 5724 5721 5719 5716 5713 5710 5706 5703 5699 5695 5691 5688 5685 5680 5675 5671 5666 5662 5658 5653 5648 5643 5639 5634 5630 5626 5622 5618 5615 5612 5609
5736 5735 5734 5733 5731 5730 5728 5726 5724 5722 5719 5717 5714 5711 5708 5705 5702 5699 5696 5692 5688 5684 5680 5676 5673 5668 5663 5659 5655 5650 5646 5641 5637 5632 5628 5624 5620 5616 5612 5609 5607 5604 5601 5599
5727 5725 5724 5722 5720 5718 5716 5714 5712 5709 5706 5703 5700 5697 5694 5691 5687 5684 5680 5676 5672 5668 5665 5660 5656 5651 5647 5642 5638 5634 5629 5625 5621 5617 5613 5610 5606 5603 5600 5598 5595 5593 5591 5589
5716 5715 5713 5711 5709 5707 5704 5702 5699 5696 5693 5690 5687 5683 5680 5676 5672 5668 5664 5660 5656 5652 5648 5643 5639 5634 5630 5625 5621 5616 5612 5608 5605 5601 5598 5595 5593 5591 5589 5586 5585 5583 5582 5580
5705 5703 5701 5699 5696 5694 5691 5689 5686 5682 5679 5676 5672 5668 5665 5661 5657 5652 5648 5644 5639 5635 5631 5626 5621 5616 5612 5608 5603 5599 5595 5592 5588 5586 5583 5582 5580 5578 5577 5575 5575 5574 5573 5572
5693 5691 5689 5686 5684 5681 5678 5675 5671 5668 5664 5661 5657 5653 5649 5645 5641 5636 5631 5627 5622 5618 5613 5608 5603 5599 5594 5590 5586 5582 5578 5575 5573 5571 5569 5568 5567 5566 5565 5565 5564 5564 5564 5563
5680 5678 5676 5673 5670 5667 5664 5661 5657 5653 5650 5646 5642 5638 5633 5629 5625 5620 5616 5611 5606 5601 5596 5591 5587 5582 5577 5573 5569 5565 5562 5559 5558 5556 5555 5555 5555 5554 5554 5555 5555 5555 5555 5555
5667 5664 5661 5659 5656 5653 5649 5646 5642 5639 5635 5631 5626 5622 5618 5613 5609 5604 5599 5595 5590 5586 5581 5576 5572 5567 5562 5557 5554 5550 5547 5545 5544 5543 5543 5543 5543 5544 5545 5546 5547 5547 5548 5548
5652 5650 5647 5644 5641 5638 5634 5631 5627 5623 5619 5615 5611 5607 5602 5598 5594 5590 5585 5581 5576 5572 5567 5562 5558 5553 5548 5544 5540 5537 5535 5533 5531 5531 5531 5532 5533 5535 5536 5538 5539 5540 5541 5542
5639 5636 5633 5629 5626 5623 5619 5616 5613 5609 5605 5601 5598 5594 5589 5585 5581 5577 5573 5568 5564 5559 5554 5550 5546 5541 5537 5533 5529 5526 5524 5522 5521 5521 5522 5523 5525 5527 5528 5530 5532 5533 5535 5536
5624 5621 5618 5615 5612 5609 5606 5602 5599 5596 5592 5588 5585 5582 5578 5574 5570 5566 5561 5557 5553 5548 5544 5540 5535 5531 5527 5523 5520 5517 5514 5513 5513 5513 5514 5516 5518 5520 5522 5524 5526 5528 5529 5530